Meridian NAS, MS

2:44 AM CDT on March 27, 2017 (GMT -0500)
Meridian Naval Air Station

Weather History for KNMM - April, 2012

Change the Weather History Date:

Tuesday, April 10, 2012

  Actual Average Record
Temperature  
Mean Temperature 64 °F -  
Max Temperature 82 °F 72 °F 89 °F (2011)
Min Temperature 48 °F 50 °F 39 °F (2006)
Growing Degree Days 14 (Base 50)    
Moisture  
Dew Point 53 °F    
Average Humidity 68    
Maximum Humidity 96    
Minimum Humidity 35    
Precipitation  
Precipitation 0.00 in - - ()
Sea Level Pressure  
Sea Level Pressure 30.11 in    
Wind  
Wind Speed 3 mph (WNW)    
Max Wind Speed 10 mph    
Max Gust Speed -    
Visibility 10 miles    
Events      
Averages and records for this station are not official NWS values.
T = Trace of Precipitation, MM = Missing Value Source: NWS Daily Summary

Daily Weather History Graph

Daily Weather History Graph

Search for Another Location

Airport or City:

Trip Planner

Search our weather history database for the weather conditions in past years. The results will help you decide how hot, cold, wet, or windy it might be!

Date:

Astronomy

Apr. 10, 2012 Rise Set
Actual Time 6:30 AM CDT 7:20 PM CDT
Civil Twilight 6:05 AM CDT 7:46 PM CDT
Nautical Twilight 5:35 AM CDT 8:15 PM CDT
Astronomical Twilight 5:05 AM CDT 8:46 PM CDT
Moon No Moon Rise 9:28 AM CDT (4/10)
Length of Visible Light 13h 40m
Length of Day
12h 50m
Waning Gibbous, 79% of the Moon is Illuminated
Apr 10
Waning Gibbous
Apr 13
Last Quarter
Apr 21
New
Apr 29
First Quarter
May 5
Full

Hourly Weather History & Observations

Time (CDT) Temp. Heat Index Dew Point Humidity Pressure Visibility Wind Dir Wind Speed Gust Speed Precip Events Conditions
12:56 AM 54.0 °F - 51.1 °F 90% 30.14 in 10.0 mi Calm Calm - N/A   Clear
1:56 AM 51.1 °F - 50.0 °F 96% 30.13 in 10.0 mi Calm Calm - N/A   Clear
2:56 AM 53.1 °F - 51.1 °F 93% 30.12 in 10.0 mi West 3.5 mph - N/A   Clear
3:56 AM 50.0 °F - 48.9 °F 96% 30.12 in 10.0 mi Calm Calm - N/A   Clear
4:56 AM 50.0 °F - 48.9 °F 96% 30.12 in 10.0 mi Calm Calm - N/A   Clear
5:56 AM 48.0 °F - 46.9 °F 96% 30.12 in 9.0 mi Calm Calm - N/A   Clear
6:56 AM 48.9 °F - 46.9 °F 93% 30.15 in 10.0 mi West 3.5 mph - N/A   Clear
7:56 AM 55.9 °F - 53.1 °F 90% 30.16 in 10.0 mi Calm Calm - N/A   Clear
8:56 AM 63.0 °F - 54.0 °F 72% 30.15 in 10.0 mi Calm Calm - N/A   Clear
9:56 AM 71.1 °F - 52.0 °F 51% 30.16 in 10.0 mi WNW 5.8 mph - N/A   Clear
10:56 AM 75.0 °F - 48.9 °F 40% 30.16 in 10.0 mi West 6.9 mph - N/A   Clear
11:56 AM 78.1 °F - 51.1 °F 39% 30.15 in 10.0 mi NW 10.4 mph - N/A   Clear
12:56 PM 79.0 °F - 52.0 °F 39% 30.13 in 10.0 mi WNW 10.4 mph - N/A   Scattered Clouds
1:56 PM 79.0 °F - 51.1 °F 38% 30.11 in 10.0 mi Variable 6.9 mph - N/A   Scattered Clouds
2:56 PM 80.1 °F - 51.1 °F 36% 30.08 in 10.0 mi NW 8.1 mph - N/A   Partly Cloudy
3:56 PM 81.0 °F - 51.1 °F 35% 30.06 in 10.0 mi West 8.1 mph - N/A   Partly Cloudy
4:56 PM 80.1 °F 79.9 °F 53.1 °F 39% 30.05 in 10.0 mi WSW 8.1 mph - N/A   Scattered Clouds
5:56 PM 79.0 °F - 54.0 °F 42% 30.05 in 10.0 mi West 8.1 mph - N/A   Scattered Clouds
6:56 PM 75.9 °F - 55.9 °F 50% 30.05 in 10.0 mi WNW 6.9 mph - N/A   Scattered Clouds
7:56 PM 70.0 °F - 57.9 °F 65% 30.06 in 10.0 mi NE 4.6 mph - N/A   Scattered Clouds
8:56 PM 66.0 °F - 57.9 °F 75% 30.08 in 10.0 mi Calm Calm - N/A   Scattered Clouds
9:56 PM 64.9 °F - 59.0 °F 81% 30.10 in 10.0 mi Calm Calm - N/A   Mostly Cloudy
10:56 PM 63.0 °F - 59.0 °F 87% 30.10 in 10.0 mi NNW 4.6 mph - N/A   Scattered Clouds
11:56 PM 63.0 °F - 59.0 °F 87% 30.11 in 10.0 mi NNW 3.5 mph - N/A   Mostly Cloudy